BMCB-34 Weather Reports


time (UTC)temp
F
wind
direction
speed
knots
gust
knots
rain 1hr
in
rain 24hr
in
rain mn
in
humidity
%
barometer
mb
20260504151024 61 0 0.0 0.0 0.00 0.00 0.00 71 1007.8
20260504141022 61 0 0.0 0.0 0.00 0.00 0.00 72 1008.1
20260504141020 61 0 0.0 0.0 0.00 0.00 0.00 71 1008.2
20260504081036 57 0 0.0 0.0 0.00 0.00 0.00 74 1009.0
20260504045028 46 0 0.0 0.0 0.00 0.00 0.00 92 1008.6
20260504043026 46 0 0.0 0.0 0.00 0.00 0.00 93 1008.5
20260504042022 46 0 0.0 0.0 0.00 0.00 0.00 93 1008.5
20260504040025 46 0 0.0 0.0 0.00 0.00 0.00 94 1008.7
20260504035029 46 0 0.0 0.0 0.00 0.00 0.00 94 1008.7
20260504034022 46 0 0.0 0.0 0.00 0.00 0.00 94 1008.7
20260504033024 46 0 0.0 0.0 0.00 0.00 0.00 94 1008.7
20260504032031 46 0 0.0 0.0 0.00 0.00 0.00 93 1008.8
20260504031029 46 0 0.0 0.0 0.00 0.00 0.00 93 1008.7
20260504030030 46 0 0.0 0.0 0.00 0.00 0.00 93 1008.7
20260504025025 46 0 0.0 0.0 0.00 0.00 0.00 93 1008.7
20260504024033 46 0 0.0 0.0 0.00 0.00 0.00 92 1008.7
20260504023028 46 0 0.0 0.0 0.00 0.00 0.00 92 1008.7
20260504022024 47 0 0.0 0.0 0.00 0.00 0.00 92 1008.6
20260504021024 47 0 0.0 0.0 0.00 0.00 0.00 92 1008.5
20260504020030 47 0 0.0 0.0 0.00 0.00 0.00 92 1008.6
20260504015026 47 0 0.0 0.0 0.00 0.00 0.00 91 1008.7
20260504014030 47 0 0.0 0.0 0.00 0.00 0.00 91 1008.7
20260504013029 47 0 0.0 0.0 0.00 0.00 0.00 91 1008.7
20260504012032 47 0 0.0 0.0 0.00 0.00 0.00 91 1008.7
20260504011033 47 0 0.0 0.0 0.00 0.00 0.00 91 1008.8
20260504005029 48 0 0.0 0.0 0.00 0.00 0.00 91 1008.7
20260504004030 48 0 0.0 0.0 0.00 0.00 0.00 91 1008.7
20260504002030 48 0 0.0 0.0 0.00 0.00 0.00 90 1008.6
20260504001033 48 0 0.0 0.0 0.00 0.00 0.00 90 1008.6
20260503235036 49 0 0.0 0.0 0.00 0.00 0.00 89 1008.6
20260503234034 49 0 0.0 0.0 0.00 0.00 0.00 89 1008.5
20260503233031 49 0 0.0 0.0 0.00 0.00 0.00 89 1008.5
20260503232030 49 0 0.0 0.0 0.00 0.00 0.00 88 1008.5
20260503231033 49 0 0.0 0.0 0.00 0.00 0.00 88 1008.5
20260503230039 50 0 0.0 0.0 0.00 0.00 0.00 88 1008.6
20260503225032 50 0 0.0 0.0 0.00 0.00 0.00 87 1008.6
20260503224032 50 0 0.0 0.0 0.00 0.00 0.00 87 1008.6
20260503223031 50 0 0.0 0.0 0.00 0.00 0.00 87 1008.6
20260503221032 51 0 0.0 0.0 0.00 0.00 0.00 85 1008.6
20260503220036 51 0 0.0 0.0 0.00 0.00 0.00 85 1008.5
20260503215034 51 0 0.0 0.0 0.00 0.00 0.00 85 1008.5
20260503214031 52 0 0.0 0.0 0.00 0.00 0.00 84 1008.5
20260503213034 52 0 0.0 0.0 0.00 0.00 0.00 82 1008.4
20260503211035 53 0 0.0 0.0 0.00 0.00 0.00 81 1008.4
20260503210033 53 0 0.0 0.0 0.00 0.00 0.00 81 1008.4
20260503205033 53 0 0.0 0.0 0.00 0.00 0.00 82 1008.5
20260503204039 53 0 0.0 0.0 0.00 0.00 0.00 82 1008.5
20260503202033 53 0 0.0 0.0 0.00 0.00 0.00 82 1008.4
20260503201038 54 0 0.0 0.0 0.00 0.00 0.00 81 1008.4
20260503200034 54 0 0.0 0.0 0.00 0.00 0.00 80 1008.4
20260503194035 55 0 0.0 0.0 0.00 0.00 0.00 79 1008.3
20260503191033 57 0 0.0 0.0 0.00 0.00 0.00 77 1008.3
20260503190034 57 0 0.0 0.0 0.00 0.00 0.00 77 1008.1
20260503185035 58 0 0.0 0.0 0.00 0.00 0.00 75 1008.0
20260503184036 59 0 0.0 0.0 0.00 0.00 0.00 73 1007.9
20260503183033 61 0 0.0 0.0 0.00 0.00 0.00 67 1007.8
20260503181017 62 0 0.0 0.0 0.00 0.00 0.00 62 1007.5
20260503180023 62 0 0.0 0.0 0.00 0.00 0.00 62 1007.5
20260503175021 62 0 0.0 0.0 0.00 0.00 0.00 62 1007.6
20260503174017 62 0 0.0 0.0 0.00 0.00 0.00 62 1007.7
20260503173017 62 0 0.0 0.0 0.00 0.00 0.00 62 1007.7
20260503172022 62 0 0.0 0.0 0.00 0.00 0.00 63 1007.8
20260503171016 62 0 0.0 0.0 0.00 0.00 0.00 63 1007.9